This is the latest recevied weather packets stored in our database for station/object W3BRL. If no packets are shown the sender has not sent any weather packets the latest 10 day(s).
| Time | Temp. | Humidity | Pressure | Rain* | Wind** | Luminosity | Snow |
|---|---|---|---|---|---|---|---|
| 1777331025 | 20.56° C | 32% | 1015.9 hPa | 0 mm | - | 72 W/m² | - |
| 1777330722 | 20.56° C | 32% | 1015.8 hPa | 0 mm | - | 78 W/m² | - |
| 1777330419 | 21.11° C | 32% | 1016.1 hPa | 0 mm | - | 83 W/m² | - |
| 1777330116 | 21.11° C | 31% | 1016.2 hPa | 0 mm | - | 90 W/m² | - |
| 1777329815 | 21.11° C | 31% | 1016.3 hPa | 0 mm | - | 96 W/m² | - |
| 1777329513 | 21.11° C | 32% | 1016.3 hPa | 0 mm | - | 105 W/m² | - |
| 1777329210 | 21.11° C | 32% | 1016.3 hPa | 0 mm | - | 115 W/m² | - |
| 1777328908 | 21.67° C | 31% | 1016.4 hPa | 0 mm | - | 127 W/m² | - |
| 1777328606 | 21.67° C | 31% | 1016.5 hPa | 0 mm | - | 136 W/m² | - |
| 1777328303 | 21.67° C | 31% | 1016.5 hPa | 0 mm | - | 153 W/m² | - |
| 1777328001 | 21.67° C | 31% | 1016.5 hPa | 0 mm | - | 147 W/m² | - |
| 1777327700 | 21.67° C | 32% | 1016.6 hPa | 0 mm | - | 165 W/m² | - |
| 1777327396 | 21.67° C | 31% | 1016.5 hPa | 0 mm | - | 225 W/m² | - |
| 1777327094 | 21.67° C | 31% | 1016.4 hPa | 0 mm | - | 270 W/m² | - |
| 1777326790 | 21.67° C | 30% | 1016.2 hPa | 0 mm | - | 262 W/m² | - |
| 1777326488 | 21.67° C | 31% | 1016.1 hPa | 0 mm | - | 262 W/m² | - |
| 1777326185 | 21.67° C | 31% | 1016 hPa | 0 mm | - | 248 W/m² | - |
| 1777325883 | 21.67° C | 30% | 1016 hPa | 0 mm | - | 230 W/m² | - |
| 1777325581 | 21.67° C | 30% | 1016 hPa | 0 mm | - | 221 W/m² | - |
| 1777325278 | 22.22° C | 30% | 1016.2 hPa | 0 mm | - | 262 W/m² | - |
| 1777324976 | 22.78° C | 30% | 1015.8 hPa | 0 mm | - | 301 W/m² | - |
| 1777324672 | 22.22° C | 30% | 1016 hPa | 0 mm | - | 354 W/m² | - |
| 1777324370 | 22.22° C | 30% | 1016 hPa | 0 mm | - | 386 W/m² | - |
| 1777324068 | 21.67° C | 31% | 1016 hPa | 0 mm | - | 422 W/m² | - |
| 1777323765 | 22.22° C | 30% | 1016.1 hPa | 0 mm | - | 431 W/m² | - |
* Rain latest hour (hover to see other rain measurements)
** Current wind speed in m/s (hover to see current wind gust speed)